Location: McCall
(45.0000°N, 116.0000°W)
Time: 15:58:22
(UTC-06:00)

Amateur Radio Satellites - All Passes

Search period start: 21 August 2014 15:28
Search period end: 22 August 2014 15:28
Location: McCall, 45.0000°N, 116.0000°W

Satellite Date Start Highest point End Downlink Frequencies (MHz)
Time Altitude Azimuth
Oscar 16 21 Aug 15:32:57 15:37:00 23° 267° (W) 15:41:05 437.025 USB, Beacon 2401.1428
AO-27 21 Aug 15:34:02 15:39:01 48° 261° (W) 15:44:03 436.795 MHz FM
ISS 21 Aug 15:47:23 15:50:41 68° 147° (SSE) 15:54:00 145.800 FM
UOSAT-12 21 Aug 15:48:17 15:51:06 15° 31° (NNE) 15:53:53 437.025 FM, 437.400 FM
JAS-1B 21 Aug 15:48:52 15:58:42 64° 259° (W) 16:08:02 435.800 - 435.900 CW/SSB
Uosat F 21 Aug 15:50:53 15:54:24 20° 61° (ENE) 15:57:55 435.120 FM
TMSAT-1 21 Aug 16:02:08 16:07:26 82° 256° (WSW) 16:12:46 436.925 FM
MaSat-1 21 Aug 16:04:16 16:08:33 35° 107° (ESE) 16:13:10 437.345 MHz
SO-50 21 Aug 16:11:28 16:16:12 65° 238° (WSW) 16:20:59 436.795 FM
Gurwin Techsat 1B 21 Aug 16:44:53 16:49:20 27° 266° (W) 16:53:48 435.225 FM
ITAMSAT 1 21 Aug 16:51:54 16:52:56 11° 273° (W) 16:53:58 435.822 SSB
JAS-2 21 Aug 17:01:44 17:04:26 13° 56° (NE) 17:07:02 435.800 - 435.900 CW/SSB, 435.910 FM
RS-15 21 Aug 17:05:51 17:15:46 36° 28° (NNE) 17:25:53 29.354 - 29.394 USB, Beacon 29.352 USB
AO-7 21 Aug 17:09:20 17:17:42 84° 252° (WSW) 17:26:06 29.400 - 29.500 MHz
ISS 21 Aug 17:24:36 17:27:38 32° 346° (NNW) 17:30:40 145.800 FM
UOSAT-12 21 Aug 17:27:25 17:32:09 66° 52° (NE) 17:36:49 437.025 FM, 437.400 FM
Uosat F 21 Aug 17:27:47 17:32:45 61° 258° (WSW) 17:37:44 435.120 FM
MaSat-1 21 Aug 17:41:09 17:45:39 36° 308° (NW) 17:50:27 437.345 MHz
JAS-1B 21 Aug 17:45:41 17:50:43 15° 278° (W) 17:55:40 435.800 - 435.900 CW/SSB
TMSAT-1 21 Aug 17:47:00 17:48:11 11° 274° (W) 17:49:21 436.925 FM
OPAL 21 Aug 18:11:24 18:16:36 66° 104° (ESE) 18:21:47 ?
JAS-2 21 Aug 18:42:04 18:48:43 71° 73° (ENE) 18:54:35 435.800 - 435.900 CW/SSB, 435.910 FM
Hamsat 21 Aug 18:46:40 18:50:56 81° 76° (ENE) 18:55:17 145.90 MHz
ISS 21 Aug 19:02:07 19:05:00 26° 6° (N) 19:07:52 145.800 FM
AO-7 21 Aug 19:06:19 19:11:40 18° 271° (W) 19:17:02 29.400 - 29.500 MHz
UOSAT-12 21 Aug 19:08:45 19:11:48 17° 250° (WSW) 19:14:49 437.025 FM, 437.400 FM
Sapphire 21 Aug 19:09:55 19:13:34 19° 106° (ESE) 19:17:15 437.095 MHz 1200 baud AX-25 AFSK
RS-15 21 Aug 19:18:36 19:29:43 89° 56° (NE) 19:41:14 29.354 - 29.394 USB, Beacon 29.352 USB
PCSat 21 Aug 19:38:58 19:43:50 35° 112° (ESE) 19:48:44 145.825 MHz
STRAND 1 21 Aug 19:39:25 19:43:22 22° 93° (E) 19:47:17 ?
OPAL 21 Aug 19:51:18 19:54:59 20° 302° (WNW) 19:58:41 ?
HO-68 21 Aug 20:11:26 20:16:43 23° 54° (NE) 20:22:00 435.675 MHz FM
SO-67 21 Aug 20:14:09 20:17:36 65° 259° (W) 20:21:04 435.3500 MHz FM
JAS-2 21 Aug 20:29:31 20:34:11 20° 268° (W) 20:38:32 435.800 - 435.900 CW/SSB, 435.910 FM
Oscar 10/S400 21 Aug 20:33:32 20:51:49 44° 153° (SSE) 21:49:05 145.825 - 145.975 CW/USB, Beacon 145.810 USB
ISS 21 Aug 20:38:52 20:42:11 61° 26° (NNE) 20:45:29 145.800 FM
Sapphire 21 Aug 20:51:02 20:56:25 69° 304° (NW) 21:01:51 437.095 MHz 1200 baud AX-25 AFSK
STRAND 1 21 Aug 21:17:54 21:22:49 49° 290° (WNW) 21:27:42 ?
PCSat 21 Aug 21:22:08 21:27:12 40° 311° (NW) 21:32:19 145.825 MHz
UKube-1 21 Aug 21:24:48 21:28:28 27° 66° (ENE) 21:32:10 145.840 MHz, 145.915 MHz
RS-15 21 Aug 21:32:14 21:40:42 26° 258° (WSW) 21:49:26 29.354 - 29.394 USB, Beacon 29.352 USB
Oscar 11 21 Aug 21:41:42 21:45:09 24° 66° (ENE) 21:48:38 145.825 FM, Beacon 2401.500 USB
HO-68 21 Aug 21:56:28 22:03:38 83° 254° (WSW) 22:10:50 435.675 MHz FM
ISS 21 Aug 22:16:02 22:18:41 22° 223° (SW) 22:21:19 145.800 FM
Sapphire 21 Aug 22:37:31 22:40:52 16° 326° (NW) 22:44:15 437.095 MHz 1200 baud AX-25 AFSK
UKube-1 21 Aug 23:00:44 23:04:36 31° 263° (W) 23:08:29 145.840 MHz, 145.915 MHz
PCSat 21 Aug 23:10:37 23:12:12 11° 334° (NNW) 23:13:48 145.825 MHz
FUNcube-1 21 Aug 23:15:25 23:19:34 86° 76° (ENE) 23:23:46 145.950 - 145.970 MHz USB
Oscar 11 21 Aug 23:17:12 23:21:10 35° 263° (W) 23:25:11 145.825 FM, Beacon 2401.500 USB
HO-68 21 Aug 23:48:23 23:52:23 16° 273° (W) 23:56:23 435.675 MHz FM
MaSat-1 22 Aug 00:20:30 00:23:57 18° 42° (NE) 00:27:11 437.345 MHz
Saudisat 1A 22 Aug 01:05:21 01:07:46 15° 110° (ESE) 01:10:12 436.775 MHz
MaSat-1 22 Aug 01:56:50 02:01:47 79° 244° (WSW) 02:06:07 437.345 MHz
Oscar 16 22 Aug 02:03:38 02:06:27 15° 89° (E) 02:09:15 437.025 USB, Beacon 2401.1428
KITSAT 1 22 Aug 02:07:26 02:15:12 53° 114° (ESE) 02:23:00 435.175 FM
Saudisat 1A 22 Aug 02:42:25 02:46:49 70° 307° (NW) 02:51:15 436.775 MHz
PCSat 22 Aug 02:42:38 02:44:50 12° 28° (NNE) 02:47:01 145.825 MHz
AO-40 22 Aug 03:04:16 04:14:35 15° 229° (SW) 06:00:44 Beacon 2401.320
Oscar 19 22 Aug 03:08:02 03:13:09 53° 100° (E) 03:18:13 437.125 CW, 437.150 USB
AO-Echo 22 Aug 03:13:31 03:17:35 28° 95° (E) 03:21:35 ?
ITAMSAT 1 22 Aug 03:18:45 03:23:17 30° 95° (E) 03:27:48 435.822 SSB
Gurwin Techsat 1B 22 Aug 03:19:47 03:22:40 15° 88° (E) 03:25:32 435.225 FM
Uribyol 2 22 Aug 03:31:01 03:35:55 41° 98° (E) 03:40:47 436.500 FM
JAS-1B 22 Aug 03:34:54 03:41:53 39° 93° (E) 03:47:48 435.800 - 435.900 CW/SSB
Oscar 16 22 Aug 03:41:10 03:46:23 77° 286° (WNW) 03:51:34 437.025 USB, Beacon 2401.1428
AO-27 22 Aug 03:44:50 03:49:55 52° 100° (E) 03:54:57 436.795 MHz FM
OPAL 22 Aug 03:51:20 03:55:04 21° 59° (ENE) 03:58:50 ?
Sapphire 22 Aug 03:54:10 03:58:48 28° 44° (NE) 04:03:25 437.095 MHz 1200 baud AX-25 AFSK
KITSAT 1 22 Aug 04:03:09 04:10:48 44° 316° (NW) 04:18:30 435.175 FM
TMSAT-1 22 Aug 04:16:16 04:21:06 34° 96° (E) 04:25:53 436.925 FM
PCSat 22 Aug 04:24:28 04:29:42 46° 51° (NE) 04:34:53 145.825 MHz
Saudisat 1A 22 Aug 04:24:44 04:27:13 15° 328° (NNW) 04:29:42 436.775 MHz
Oscar 19 22 Aug 04:48:08 04:52:08 23° 298° (WNW) 04:56:06 437.125 CW, 437.150 USB
AO-Echo 22 Aug 04:52:09 04:56:25 34° 293° (WNW) 05:00:37 ?
Gurwin Techsat 1B 22 Aug 04:57:55 05:03:15 78° 286° (WNW) 05:08:33 435.225 FM
ITAMSAT 1 22 Aug 04:58:06 05:02:50 37° 293° (WNW) 05:07:33 435.822 SSB
AO-7 22 Aug 05:09:22 05:16:22 29° 94° (E) 05:23:18 29.400 - 29.500 MHz
Uribyol 2 22 Aug 05:10:51 05:15:13 28° 296° (WNW) 05:19:35 436.500 FM
Oscar 16 22 Aug 05:22:54 05:24:52 12° 305° (NW) 05:26:50 437.025 USB, Beacon 2401.1428
AO-27 22 Aug 05:25:06 05:29:05 23° 298° (WNW) 05:33:04 436.795 MHz FM
JAS-1B 22 Aug 05:25:26 05:32:35 42° 298° (WNW) 05:38:38 435.800 - 435.900 CW/SSB
OPAL 22 Aug 05:28:37 05:33:32 57° 257° (WSW) 05:38:34 ?
Uosat F 22 Aug 05:33:40 05:38:15 35° 97° (E) 05:42:48 435.120 FM
Sapphire 22 Aug 05:37:15 05:42:34 57° 244° (WSW) 05:47:51 437.095 MHz 1200 baud AX-25 AFSK
TMSAT-1 22 Aug 05:56:15 06:00:59 34° 294° (WNW) 06:05:42 436.925 FM
KITSAT 1 22 Aug 06:03:12 06:08:38 19° 343° (NNW) 06:14:04 435.175 FM
PCSat 22 Aug 06:08:14 06:12:55 30° 250° (WSW) 06:17:34 145.825 MHz
SO-50 22 Aug 06:29:00 06:32:40 25° 114° (ESE) 06:36:25 436.795 FM
Hamsat 22 Aug 06:32:11 06:34:18 13° 89° (E) 06:36:24 145.90 MHz
Gurwin Techsat 1B 22 Aug 06:40:09 06:42:21 13° 305° (NW) 06:44:33 435.225 FM
STRAND 1 22 Aug 06:57:03 07:01:47 40° 68° (ENE) 07:06:31 ?
AO-7 22 Aug 07:01:31 07:09:45 68° 294° (WNW) 07:17:55 29.400 - 29.500 MHz
Uosat F 22 Aug 07:12:36 07:16:58 31° 295° (WNW) 07:21:18 435.120 FM
JAS-2 22 Aug 07:34:11 07:39:11 47° 99° (E) 07:44:16 435.800 - 435.900 CW/SSB, 435.910 FM
UOSAT-12 22 Aug 07:43:30 07:45:13 12° 107° (ESE) 07:46:56 437.025 FM, 437.400 FM
KITSAT 1 22 Aug 08:02:32 08:07:45 18° 14° (NNE) 08:12:57 435.175 FM
Hamsat 22 Aug 08:06:21 08:10:42 64° 286° (WNW) 08:15:00 145.90 MHz
SO-50 22 Aug 08:08:43 08:13:01 43° 313° (NW) 08:17:25 436.795 FM
STRAND 1 22 Aug 08:36:43 08:41:04 28° 265° (W) 08:45:26 ?
AO-7 22 Aug 08:55:55 09:01:04 18° 316° (NW) 09:06:12 29.400 - 29.500 MHz
SO-67 22 Aug 09:08:59 09:12:28 71° 284° (WNW) 09:15:54 435.3500 MHz FM
UOSAT-12 22 Aug 09:19:59 09:24:37 89° 300° (WNW) 09:29:22 437.025 FM, 437.400 FM
JAS-2 22 Aug 09:20:01 09:24:03 23° 298° (WNW) 09:28:07 435.800 - 435.900 CW/SSB, 435.910 FM
HO-68 22 Aug 09:23:46 09:28:04 17° 88° (E) 09:32:20 435.675 MHz FM
Saudisat 1A 22 Aug 09:28:19 09:32:01 25° 41° (NE) 09:35:43 436.775 MHz
RS-15 22 Aug 09:44:35 09:54:54 47° 111° (ESE) 10:05:04 29.354 - 29.394 USB, Beacon 29.352 USB
SO-50 22 Aug 09:53:18 09:54:49 11° 335° (NNW) 09:56:20 436.795 FM
KITSAT 1 22 Aug 09:58:15 10:05:47 40° 42° (NE) 10:13:15 435.175 FM
UKube-1 22 Aug 10:46:37 10:50:39 36° 98° (E) 10:54:39 145.840 MHz, 145.915 MHz
UOSAT-12 22 Aug 11:02:11 11:05:27 18° 326° (NW) 11:08:46 437.025 FM, 437.400 FM
Oscar 11 22 Aug 11:02:37 11:06:38 35° 97° (E) 11:10:38 145.825 FM, Beacon 2401.500 USB
FUNcube-1 22 Aug 11:03:36 11:06:12 15° 91° (E) 11:08:50 145.950 - 145.970 MHz USB
Saudisat 1A 22 Aug 11:07:34 11:11:50 48° 240° (WSW) 11:16:04 436.775 MHz
HO-68 22 Aug 11:09:33 11:16:45 87° 107° (ESE) 11:23:55 435.675 MHz FM
KITSAT 1 22 Aug 11:53:40 12:01:36 61° 244° (WSW) 12:09:28 435.175 FM
RS-15 22 Aug 11:56:12 12:07:02 59° 315° (NW) 12:17:50 29.354 - 29.394 USB, Beacon 29.352 USB
UKube-1 22 Aug 12:23:13 12:26:40 23° 295° (WNW) 12:30:06 145.840 MHz, 145.915 MHz
JAS-1B 22 Aug 12:34:41 12:39:03 14° 44° (NE) 12:43:15 435.800 - 435.900 CW/SSB
FUNcube-1 22 Aug 12:38:36 12:42:56 58° 287° (WNW) 12:47:21 145.950 - 145.970 MHz USB
Oscar 11 22 Aug 12:39:07 12:42:40 25° 294° (WNW) 12:46:12 145.825 FM, Beacon 2401.500 USB
Oscar 19 22 Aug 12:50:44 12:53:25 14° 57° (ENE) 12:56:05 437.125 CW, 437.150 USB
HO-68 22 Aug 12:58:27 13:03:36 22° 307° (NW) 13:08:46 435.675 MHz FM
Uribyol 2 22 Aug 13:15:33 13:17:22 12° 55° (NE) 13:19:11 436.500 FM
SO-50 22 Aug 13:18:49 13:20:38 12° 26° (NNE) 13:22:28 436.795 FM
Oscar 16 22 Aug 13:22:01 13:26:16 27° 64° (ENE) 13:30:33 437.025 USB, Beacon 2401.1428
AO-27 22 Aug 13:28:30 13:31:21 15° 57° (ENE) 13:34:12 436.795 MHz FM
KITSAT 1 22 Aug 13:53:07 13:55:19 11° 263° (W) 13:57:30 435.175 FM
TMSAT-1 22 Aug 14:04:24 14:05:12 10° 53° (NE) 14:06:00 436.925 FM
RS-15 22 Aug 14:13:12 14:22:17 29° 347° (NNW) 14:31:28 29.354 - 29.394 USB, Beacon 29.352 USB
JAS-1B 22 Aug 14:18:14 14:27:33 49° 64° (ENE) 14:36:14 435.800 - 435.900 CW/SSB
AO-7 22 Aug 14:23:45 14:27:15 13° 39° (NE) 14:30:45 29.400 - 29.500 MHz
Oscar 19 22 Aug 14:26:52 14:32:01 89° 255° (WSW) 14:37:14 437.125 CW, 437.150 USB
AO-Echo 22 Aug 14:27:53 14:32:48 48° 70° (ENE) 14:37:36 ?
ITAMSAT 1 22 Aug 14:38:34 14:43:37 56° 71° (ENE) 14:48:41 435.822 SSB
Gurwin Techsat 1B 22 Aug 14:42:14 14:46:44 29° 64° (ENE) 14:51:14 435.225 FM
Uribyol 2 22 Aug 14:50:49 14:55:58 76° 73° (ENE) 15:01:08 436.500 FM
SO-50 22 Aug 14:57:50 15:02:24 44° 48° (NE) 15:07:02 436.795 FM
ISS 22 Aug 14:59:05 15:02:14 41° 142° (SE) 15:05:23 145.800 FM
Oscar 16 22 Aug 15:00:32 15:05:24 43° 262° (W) 15:10:21 437.025 USB, Beacon 2401.1428
AO-27 22 Aug 15:04:58 15:10:10 85° 256° (WSW) 15:15:24 436.795 MHz FM
